Location: Muenchen
(48.1800°N, 11.5800°E)
Time: 01:47:49
(UTC+02:00)

Iridium 36 - Visible Passes

Search period start: 03 September 2015 00:00
Search period end: 13 September 2015 00:00
Orbit: 772 x 775 km, 86.4° (Epoch: 02 September)

Date Brightness Start Highest point End Pass type
(mag) Time Alt. Az. Time Alt. Az. Time Alt. Az.
03 Sep 8.0 04:12:28 10° NNE 04:16:18 21° ENE 04:20:15 10° ESE visible
03 Sep 5.6 05:52:19 10° N 05:57:26 58° W 06:02:30 10° SSW visible
04 Sep 8.5 03:39:09 10° NE 03:41:04 12° ENE 03:43:14 10° E visible
04 Sep 5.6 05:17:31 10° N 05:22:45 81° E 05:27:57 10° S visible
05 Sep 6.6 04:42:55 10° N 04:47:55 45° E 04:52:54 10° SSE visible
06 Sep 7.6 04:08:37 10° NNE 04:12:56 27° ENE 04:17:19 10° SE visible
06 Sep 5.9 05:48:53 10° NNW 05:53:50 44° W 05:58:44 10° SSW visible
07 Sep 8.3 03:34:47 10° NNE 03:37:47 16° ENE 03:40:58 10° ESE visible
07 Sep 5.4 05:13:59 10° N 05:19:12 79° W 05:24:24 10° S visible
08 Sep 6.1 04:39:18 10° N 04:44:26 59° E 04:49:34 10° SSE visible
09 Sep 7.1 04:04:50 10° NNE 04:09:32 34° ENE 04:14:15 10° SE visible
09 Sep 6.2 05:45:31 10° NNW 05:50:12 34° W 05:54:50 10° SSW visible
10 Sep 7.9 03:30:44 10° NNE 03:34:27 20° ENE 03:38:18 10° ESE visible
10 Sep 5.5 05:10:29 10° N 05:15:38 61° W 05:20:44 10° SSW visible
11 Sep 8.4 02:57:36 10° NE 02:59:12 11° ENE 03:01:04 10° E visible
11 Sep 5.6 04:35:42 10° N 04:40:56 77° E 04:46:08 10° S visible
12 Sep 6.6 04:01:08 10° N 04:06:05 43° E 04:11:03 10° SSE visible
12 Sep 6.5 05:42:12 10° NNW 05:46:34 27° W 05:50:50 10° SW visible
